Time,TemperatureF,DewpointF,PressureIn,WindDirection,WindDirectionDegrees,WindSpeedMPH,WindSpeedGustMPH,Humidity,HourlyPrecipIn,Conditions,Clouds,dailyrainin,SoftwareType,DateUTC
2013-08-07 00:01:00,69.0,67.0,30.00,North,5,0.0,0.0,92,0.00,,,0.13,,2013-08-07 04:01:00,
2013-08-07 00:21:00,69.0,67.0,30.00,North,5,0.0,0.0,92,0.00,,,0.13,,2013-08-07 04:21:00,
2013-08-07 00:33:00,69.0,67.0,30.00,North,5,0.0,0.0,93,0.00,,,0.13,,2013-08-07 04:33:00,
2013-08-07 00:43:00,69.0,67.0,30.00,North,5,0.0,0.0,94,0.00,,,0.13,,2013-08-07 04:43:00,
2013-08-07 00:52:00,69.0,67.0,30.00,North,5,0.0,0.0,94,0.00,,,0.13,,2013-08-07 04:52:00,
2013-08-07 01:02:00,69.0,67.0,30.00,North,5,0.0,0.0,94,0.00,,,0.13,,2013-08-07 05:02:00,
2013-08-07 01:11:00,69.0,67.0,30.00,North,5,0.0,0.0,94,0.00,,,0.13,,2013-08-07 05:11:00,
2013-08-07 01:22:00,69.0,67.0,30.00,North,5,0.0,0.0,94,0.00,,,0.13,,2013-08-07 05:22:00,
2013-08-07 01:32:00,69.0,67.0,29.99,North,5,0.0,0.0,94,0.00,,,0.13,,2013-08-07 05:32:00,
2013-08-07 01:43:00,69.0,67.0,29.99,North,5,0.0,0.0,94,0.00,,,0.13,,2013-08-07 05:43:00,
2013-08-07 01:52:00,69.0,67.0,29.99,North,5,0.0,0.0,94,0.00,,,0.13,,2013-08-07 05:52:00,
2013-08-07 02:02:00,69.0,67.0,29.99,North,5,0.0,0.0,94,0.00,,,0.13,,2013-08-07 06:02:00,
2013-08-07 02:11:00,69.0,67.0,29.99,North,5,0.0,0.0,94,0.00,,,0.13,,2013-08-07 06:11:00,
2013-08-07 02:22:00,69.0,67.0,29.99,North,5,0.0,0.0,94,0.00,,,0.13,,2013-08-07 06:22:00,
2013-08-07 02:32:00,70.0,68.0,30.00,North,5,0.0,0.0,94,0.00,,,0.13,,2013-08-07 06:32:00,
2013-08-07 02:43:00,70.0,68.0,30.00,North,5,0.0,0.0,94,0.00,,,0.13,,2013-08-07 06:43:00,
2013-08-07 02:52:00,70.0,68.0,30.00,North,5,0.0,0.0,94,0.00,,,0.13,,2013-08-07 06:52:00,
2013-08-07 03:01:00,70.0,68.0,30.00,North,5,0.0,0.0,94,0.00,,,0.13,,2013-08-07 07:01:00,
2013-08-07 03:12:00,70.0,68.0,30.00,North,5,0.0,0.0,94,0.00,,,0.13,,2013-08-07 07:12:00,
2013-08-07 03:22:00,70.0,68.0,30.00,North,5,0.0,0.0,94,0.00,,,0.13,,2013-08-07 07:22:00,
2013-08-07 03:43:00,70.0,68.0,30.00,North,5,0.0,0.0,94,0.00,,,0.13,,2013-08-07 07:43:00,
2013-08-07 03:52:00,70.0,68.0,30.00,North,5,0.0,0.0,94,0.00,,,0.13,,2013-08-07 07:52:00,
2013-08-07 04:02:00,70.0,68.0,30.00,North,5,0.0,0.0,94,0.00,,,0.13,,2013-08-07 08:02:00,
2013-08-07 04:52:00,70.0,68.0,30.00,North,5,0.0,0.0,93,0.00,,,0.13,,2013-08-07 08:52:00,
2013-08-07 05:02:00,70.0,68.0,30.00,North,5,0.0,0.0,93,0.00,,,0.13,,2013-08-07 09:02:00,
2013-08-07 05:12:00,70.0,68.0,30.00,North,5,0.0,0.0,93,0.00,,,0.13,,2013-08-07 09:12:00,
2013-08-07 05:22:00,70.0,68.0,30.01,North,5,0.0,0.0,92,0.00,,,0.13,,2013-08-07 09:22:00,
2013-08-07 05:43:00,70.0,68.0,30.00,North,5,0.0,0.0,92,0.00,,,0.13,,2013-08-07 09:43:00,
2013-08-07 05:54:00,70.0,68.0,30.01,North,5,0.0,0.0,92,0.00,,,0.13,,2013-08-07 09:54:00,
2013-08-07 06:01:00,70.0,68.0,30.01,North,5,0.0,0.0,92,0.00,,,0.13,,2013-08-07 10:01:00,
2013-08-07 06:32:00,70.0,67.0,30.01,North,5,0.0,0.0,91,0.00,,,0.13,,2013-08-07 10:32:00,
2013-08-07 06:52:00,70.0,67.0,30.01,North,5,0.0,0.0,91,0.00,,,0.05,,2013-08-07 10:52:00,
2013-08-07 07:01:00,70.0,68.0,30.02,North,5,0.0,0.0,92,0.00,,,0.05,,2013-08-07 11:01:00,
2013-08-07 07:52:00,71.0,69.0,30.03,NNW,347,0.0,0.0,92,0.00,,,0.05,,2013-08-07 11:52:00,
2013-08-07 08:02:00,71.0,68.0,30.03,NNW,337,0.0,0.0,90,0.00,,,0.00,,2013-08-07 12:02:00,
2013-08-07 08:11:00,71.0,68.0,30.03,NNW,337,0.0,0.0,89,0.00,,,0.00,,2013-08-07 12:11:00,
2013-08-07 08:22:00,71.0,68.0,30.03,NNW,337,0.0,0.0,89,0.00,,,0.00,,2013-08-07 12:22:00,
2013-08-07 08:33:00,72.0,69.0,30.03,NNW,336,0.0,0.0,89,0.00,,,0.00,,2013-08-07 12:33:00,
2013-08-07 08:43:00,72.0,69.0,30.03,NNW,336,0.0,0.0,89,0.00,,,0.00,,2013-08-07 12:43:00,
2013-08-07 08:52:00,72.0,68.0,30.03,NNW,336,0.0,0.0,87,0.00,,,0.00,,2013-08-07 12:52:00,
2013-08-07 09:12:00,73.0,69.0,30.04,NNW,336,0.0,0.0,87,0.00,,,0.00,,2013-08-07 13:12:00,
2013-08-07 09:32:00,73.0,69.0,30.04,North,351,0.0,0.0,86,0.00,,,0.00,,2013-08-07 13:32:00,
2013-08-07 09:44:00,73.0,69.0,30.04,SSE,161,0.0,0.0,86,0.00,,,0.00,,2013-08-07 13:44:00,
2013-08-07 10:02:00,74.0,69.0,30.03,SSE,147,0.0,0.0,84,0.00,,,0.00,,2013-08-07 14:02:00,
2013-08-07 10:12:00,74.0,69.0,30.03,SSE,147,0.0,0.0,85,0.00,,,0.00,,2013-08-07 14:12:00,
2013-08-07 10:33:00,76.0,70.0,30.04,SSE,161,0.0,0.0,81,0.00,,,0.00,,2013-08-07 14:33:00,
2013-08-07 10:43:00,76.0,69.0,30.04,SSE,149,0.0,1.0,79,0.00,,,0.00,,2013-08-07 14:43:00,
2013-08-07 11:02:00,78.0,71.0,30.04,ESE,112,0.0,0.0,78,0.00,,,0.00,,2013-08-07 15:02:00,
2013-08-07 11:33:00,80.0,68.0,30.04,SSE,149,2.0,9.0,68,0.00,,,0.00,,2013-08-07 15:33:00,
2013-08-07 11:53:00,82.0,70.0,30.04,WSW,239,0.0,5.0,68,0.00,,,0.00,,2013-08-07 15:53:00,
2013-08-07 12:02:00,82.0,68.0,30.04,SSE,160,0.0,9.0,63,0.00,,,0.00,,2013-08-07 16:02:00,
2013-08-07 12:11:00,82.0,68.0,30.04,SSE,151,0.0,7.0,62,0.00,,,0.00,,2013-08-07 16:11:00,
2013-08-07 12:43:00,83.0,70.0,30.03,SE,133,0.0,11.0,65,0.00,,,0.00,,2013-08-07 16:43:00,
2013-08-07 12:53:00,84.0,68.0,30.03,West,275,5.0,8.0,58,0.00,,,0.00,,2013-08-07 16:53:00,
2013-08-07 13:02:00,84.0,69.0,30.03,SSE,154,0.0,6.0,61,0.00,,,0.00,,2013-08-07 17:02:00,
2013-08-07 13:11:00,84.0,68.0,30.03,SSE,147,2.0,7.0,59,0.00,,,0.00,,2013-08-07 17:11:00,
2013-08-07 13:22:00,84.0,67.0,30.04,West,269,0.0,7.0,57,0.00,,,0.00,,2013-08-07 17:22:00,
2013-08-07 13:33:00,84.0,68.0,30.03,South,170,4.0,7.0,59,0.00,,,0.00,,2013-08-07 17:33:00,
2013-08-07 13:43:00,85.0,69.0,30.03,SSW,207,0.0,4.0,59,0.00,,,0.00,,2013-08-07 17:43:00,
2013-08-07 13:52:00,84.0,68.0,30.03,South,174,1.0,9.0,58,0.00,,,0.00,,2013-08-07 17:52:00,
2013-08-07 14:02:00,85.0,68.0,30.01,SSE,164,4.0,10.0,57,0.00,,,0.00,,2013-08-07 18:02:00,
2013-08-07 14:22:00,85.0,68.0,30.01,SSW,207,1.0,12.0,56,0.00,,,0.00,,2013-08-07 18:22:00,
2013-08-07 14:43:00,86.0,67.0,30.01,SW,214,4.0,13.0,54,0.00,,,0.00,,2013-08-07 18:43:00,
2013-08-07 14:52:00,85.0,70.0,30.01,SSE,161,1.0,9.0,60,0.00,,,0.00,,2013-08-07 18:52:00,
2013-08-07 15:01:00,84.0,68.0,30.00,SSE,155,2.0,6.0,59,0.00,,,0.00,,2013-08-07 19:01:00,
2013-08-07 15:11:00,84.0,69.0,30.00,SSE,164,3.0,10.0,60,0.00,,,0.00,,2013-08-07 19:11:00,
2013-08-07 15:22:00,84.0,68.0,29.99,SSE,150,4.0,10.0,58,0.00,,,0.00,,2013-08-07 19:22:00,
2013-08-07 15:32:00,84.0,70.0,29.99,SSW,198,0.0,5.0,63,0.00,,,0.00,,2013-08-07 19:32:00,
2013-08-07 15:52:00,86.0,69.0,29.99,SSW,196,0.0,6.0,57,0.00,,,0.00,,2013-08-07 19:52:00,
2013-08-07 16:02:00,86.0,69.0,29.99,South,179,0.0,7.0,57,0.00,,,0.00,,2013-08-07 20:02:00,
2013-08-07 16:22:00,85.0,69.0,29.98,SSE,155,2.0,5.0,58,0.00,,,0.00,,2013-08-07 20:22:00,
2013-08-07 16:52:00,84.0,67.0,29.98,SSE,147,2.0,7.0,57,0.00,,,0.00,,2013-08-07 20:52:00,
2013-08-07 17:01:00,85.0,70.0,29.98,SW,225,0.0,4.0,61,0.00,,,0.00,,2013-08-07 21:01:00,
2013-08-07 17:11:00,85.0,70.0,29.98,SSE,167,2.0,5.0,60,0.00,,,0.00,,2013-08-07 21:11:00,
2013-08-07 17:32:00,85.0,70.0,29.97,South,183,2.0,7.0,62,0.00,,,0.00,,2013-08-07 21:32:00,
2013-08-07 17:43:00,85.0,70.0,29.97,SW,220,0.0,6.0,60,0.00,,,0.00,,2013-08-07 21:43:00,
2013-08-07 18:01:00,85.0,69.0,29.97,SSW,205,0.0,6.0,59,0.00,,,0.00,,2013-08-07 22:01:00,
2013-08-07 18:32:00,85.0,69.0,29.97,South,183,1.0,3.0,58,0.00,,,0.00,,2013-08-07 22:32:00,
2013-08-07 18:52:00,84.0,69.0,29.96,ESE,106,0.0,7.0,61,0.00,,,0.00,,2013-08-07 22:52:00,
2013-08-07 19:01:00,83.0,70.0,29.97,SSE,152,0.0,1.0,65,0.00,,,0.00,,2013-08-07 23:01:00,
2013-08-07 19:11:00,83.0,70.0,29.97,SSE,152,0.0,0.0,66,0.00,,,0.00,,2013-08-07 23:11:00,
2013-08-07 19:22:00,82.0,71.0,29.96,SSE,152,0.0,0.0,69,0.00,,,0.00,,2013-08-07 23:22:00,
2013-08-07 19:32:00,82.0,71.0,29.96,SSE,152,0.0,0.0,70,0.00,,,0.00,,2013-08-07 23:32:00,
2013-08-07 19:43:00,81.0,70.0,29.96,SSE,152,0.0,0.0,70,0.00,,,0.00,,2013-08-07 23:43:00,
2013-08-07 19:52:00,81.0,71.0,29.96,SSE,152,0.0,0.0,72,0.00,,,0.00,,2013-08-07 23:52:00,
2013-08-07 20:01:00,80.0,71.0,29.96,SSE,152,0.0,0.0,73,0.00,,,0.00,,2013-08-08 00:01:00,
2013-08-07 20:11:00,79.0,71.0,29.96,SSE,152,0.0,0.0,76,0.00,,,0.00,,2013-08-08 00:11:00,
2013-08-07 20:43:00,78.0,71.0,29.97,SSE,152,0.0,0.0,79,0.00,,,0.00,,2013-08-08 00:43:00,
2013-08-07 20:52:00,77.0,70.0,29.97,SSE,152,0.0,0.0,80,0.00,,,0.00,,2013-08-08 00:52:00,
2013-08-07 21:02:00,77.0,71.0,29.97,SSE,152,0.0,0.0,81,0.00,,,0.00,,2013-08-08 01:02:00,
2013-08-07 21:11:00,77.0,71.0,29.98,SSE,152,0.0,0.0,82,0.00,,,0.00,,2013-08-08 01:11:00,
2013-08-07 21:32:00,77.0,71.0,29.98,SSE,152,0.0,0.0,83,0.00,,,0.00,,2013-08-08 01:32:00,
2013-08-07 21:43:00,77.0,71.0,29.98,SSE,152,0.0,0.0,83,0.00,,,0.00,,2013-08-08 01:43:00,
2013-08-07 21:52:00,76.0,70.0,29.98,SSE,152,0.0,1.0,82,0.00,,,0.00,,2013-08-08 01:52:00,
2013-08-07 22:02:00,76.0,70.0,29.98,South,180,0.0,3.0,81,0.00,,,0.00,,2013-08-08 02:02:00,
2013-08-07 22:32:00,77.0,69.0,29.99,South,170,0.0,1.0,77,0.00,,,0.00,,2013-08-08 02:32:00,
2013-08-07 22:43:00,77.0,69.0,29.99,SSE,166,0.0,1.0,76,0.00,,,0.00,,2013-08-08 02:43:00,
2013-08-07 22:52:00,77.0,69.0,30.00,SSE,166,0.0,3.0,77,0.00,,,0.00,,2013-08-08 02:52:00,
2013-08-07 23:02:00,77.0,69.0,30.00,SSE,166,0.0,4.0,77,0.00,,,0.00,,2013-08-08 03:02:00,
2013-08-07 23:12:00,76.0,69.0,30.00,SSE,166,0.0,1.0,78,0.00,,,0.00,,2013-08-08 03:12:00,
2013-08-07 23:22:00,76.0,69.0,30.00,SSE,166,0.0,0.0,78,0.00,,,0.00,,2013-08-08 03:22:00,
2013-08-07 23:32:00,76.0,69.0,30.00,SSE,163,0.0,3.0,78,0.00,,,0.00,,2013-08-08 03:32:00,
2013-08-07 23:43:00,76.0,69.0,30.00,SSE,163,0.0,1.0,78,0.00,,,0.00,,2013-08-08 03:43:00,